Dewpoint
31 31 31 31 31 31 31 30 30 31 31 29 27 27 27 27 28 30 31 31 30 30 30 31 31 32 32 32 32 32 32 32 32 31 31 31 31 31 32 32 32 31 31 31 31 32 32 32 33 33 33 32 33 33 33 32 33 33 32 32 32 31 31 30 29 28 28 28 28
30 30 30 30 31 31 31 31 31 31 31 30 29 28 27 27 28 29 29 30 30 30 30 31 30 31 33 32 32 32 31 31 32 31 31 31 31 31 31 32 31 31 31 31 31 32 33 33 34 35 35 34 34 33 33 32 32 32 32 31 31 31 31 30 30 29 29 29 29
29 30 30 31 31 31 31 31 31 30 29 29 29 28 28 28 28 29 29 30 30 30 30 29 28 29 31 31 32 32 32 32 32 32 32 32 31 31 31 31 31 31 31 31 32 33 34 35 35 35 35 35 34 33 33 33 33 32 31 31 31 31 31 31 31 31 31 31 31
29 30 31 31 31 31 31 31 30 30 29 29 28 28 28 28 29 29 29 30 30 29 28 27 25 26 27 29 31 32 32 32 32 32 32 32 32 32 32 31 31 32 32 32 32 33 34 35 35 35 35 34 34 33 33 33 33 32 32 31 31 31 31 32 32 32 32 32 31
28 30 31 31 31 31 31 30 30 30 30 30 30 30 29 28 28 28 29 28 30 30 29 27 25 25 27 29 31 31 32 32 32 32 32 32 32 32 31 31 31 32 33 32 32 32 33 35 34 34 34 34 34 33 33 33 33 32 32 33 33 33 33 32 32 32 32 32 32
28 29 30 31 31 31 31 31 31 31 31 30 30 29 29 30 31 31 30 30 31 31 30 27 27 27 28 31 31 31 32 32 33 32 32 31 31 31 31 31 31 32 32 33 33 32 32 33 33 33 33 33 31 31 32 33 33 33 34 34 34 33 33 32 32 32 32 31 31
27 27 27 27 28 29 30 31 31 31 31 30 29 28 28 28 28 29 30 31 31 31 30 28 29 30 31 31 31 31 31 32 32 32 31 31 31 30 30 31 31 31 32 32 32 33 34 34 33 33 33 33 32 32 32 33 33 34 34 33 33 32 32 31 32 31 31 31 31
25 24 24 24 26 27 27 28 29 31 31 30 28 28 29 28 28 30 31 31 31 29 28 28 29 30 31 29 29 29 29 29 30 31 31 31 31 30 30 31 31 31 31 31 32 33 34 34 34 33 33 33 33 32 32 32 32 33 33 32 31 32 32 32 32 32 31 31 31
24 24 25 26 27 27 27 26 28 30 30 30 28 29 30 30 30 30 30 30 29 27 27 27 27 29 29 28 27 27 27 27 28 29 30 30 29 29 30 31 31 31 31 32 32 32 32 33 33 33 33 33 33 32 31 31 31 32 32 31 31 31 31 31 31 30 29 28 28
24 26 27 28 29 27 26 27 28 29 31 31 30 29 29 29 30 30 30 29 27 27 27 26 27 27 27 27 27 27 27 28 28 28 28 28 28 29 29 30 31 31 31 32 32 32 33 33 33 33 32 31 31 31 30 29 29 28 28 30 28 27 27 27 27 27 27 27 27
26 26 27 27 28 27 25 28 27 28 29 30 29 28 28 28 29 29 28 27 27 27 27 26 27 27 27 27 26 27 27 28 28 28 27 28 28 29 30 30 31 31 31 31 31 32 32 32 31 30 29 29 28 27 27 27 26 25 25 26 26 25 25 26 26 26 27 27 27
27 26 25 25 25 25 25 27 26 26 27 28 27 27 28 28 28 28 27 27 27 27 26 26 26 27 27 27 27 27 28 28 27 28 28 28 29 30 30 30 31 31 31 31 31 31 30 29 27 26 25 25 25 25 25 25 25 25 25 25 25 25 25 25 26 26 27 27 27
26 25 24 23 23 24 25 25 25 24 24 24 23 24 26 27 28 28 27 27 27 26 24 25 26 26 26 26 27 27 28 28 28 28 29 30 30 30 30 30 30 31 31 30 30 29 27 25 24 23 22 22 23 25 26 26 25 25 25 24 24 24 24 25 25 26 27 27 26
24 23 23 23 23 23 23 23 23 23 23 22 22 22 23 25 26 27 26 26 24 23 23 24 25 26 26 26 26 27 28 29 29 30 30 30 30 30 30 30 30 30 29 27 27 27 25 24 23 23 22 22 23 25 26 26 25 24 24 24 24 23 24 24 25 26 26 26 26
23 23 23 23 23 22 22 22 22 23 23 23 22 22 22 22 24 25 26 24 23 23 24 24 25 26 26 26 27 27 28 29 30 30 30 30 30 29 29 29 28 27 25 24 25 26 25 24 24 23 23 23 23 24 25 25 24 24 23 23 23 23 23 24 24 23 23 24 23
23 23 23 23 23 22 22 22 22 23 23 23 22 21 21 22 23 25 26 25 25 25 25 24 24 25 26 27 28 28 28 28 28 28 28 28 28 27 27 25 24 23 23 23 24 25 26 26 25 24 23 23 24 25 25 25 24 23 23 23 23 23 22 22 22 21 21 21 21
24 24 24 23 23 23 23 22 22 22 22 22 21 21 22 22 23 25 26 25 25 25 25 24 25 26 27 29 29 28 28 27 27 27 27 27 26 25 24 23 23 24 24 24 24 24 24 26 25 24 24 25 26 26 26 25 24 23 23 23 22 22 22 22 21 20 20 20 20
25 25 25 24 24 23 22 22 22 22 22 21 21 21 22 22 22 23 25 25 26 25 24 25 26 27 28 29 29 28 28 27 27 27 27 26 25 24 24 24 24 25 25 25 25 25 25 24 24 24 25 26 26 26 25 24 23 22 22 22 21 21 21 20 20 19 19 19 19
26 26 26 25 24 23 22 22 22 22 21 20 20 21 21 21 21 22 23 24 25 26 25 26 27 27 28 28 28 28 28 27 27 27 26 25 24 24 24 25 25 25 26 26 26 26 25 25 25 26 26 27 27 26 25 23 22 22 22 21 21 20 20 19 19 19 18 18 19
27 27 26 26 24 23 22 22 21 21 21 21 21 21 21 21 21 22 22 22 26 27 27 27 27 27 28 27 27 27 27 27 27 26 25 25 25 25 25 25 26 26 27 27 27 27 26 26 26 27 27 26 25 24 23 22 22 22 21 21 20 20 19 18 18 18 18 18 18
27 27 26 24 23 22 22 22 22 22 21 21 21 21 21 22 22 22 22 23 27 27 27 27 27 27 27 27 27 26 26 27 27 26 26 26 26 26 26 26 27 27 27 27 27 27 27 27 27 26 25 24 23 23 22 22 22 21 21 20 19 19 18 18 18 18 18 18 18
27 26 24 23 23 23 23 22 22 22 22 22 22 22 22 22 22 23 25 27 27 28 27 28 27 27 27 27 27 27 27 28 27 27 27 27 27 27 27 27 28 28 28 28 28 28 27 27 25 24 23 22 22 22 22 22 21 21 20 19 19 18 18 18 18 18 18 18 18
26 24 24 24 24 24 24 23 22 22 22 22 22 23 23 24 24 25 26 27 27 27 27 29 29 28 27 27 28 27 27 28 28 27 27 27 27 27 28 29 29 29 28 28 28 28 27 25 24 22 22 22 22 22 22 21 21 20 19 18 18 18 17 17 17 17 17 17 17
25 25 25 24 24 23 23 22 22 22 23 23 24 25 25 25 25 25 25 24 24 24 25 27 28 29 29 28 28 28 27 28 28 28 28 28 28 29 29 30 30 29 29 29 29 28 27 25 23 22 22 21 21 21 21 20 20 19 18 18 17 17 16 16 16 16 16 16 16
25 25 25 24 24 23 23 23 23 24 24 25 26 26 26 25 24 24 23 23 23 24 24 25 26 27 29 29 29 28 28 28 29 29 29 29 30 30 31 31 31 30 29 30 30 29 28 27 24 23 22 21 21 20 20 19 18 18 17 16 16 16 15 15 15 15 15 15 16
25 24 24 23 23 23 23 24 24 25 26 27 27 26 25 24 23 23 23 23 23 24 25 26 26 27 29 29 29 30 30 30 30 30 30 30 31 31 32 32 31 30 30 31 30 29 28 27 27 25 22 21 20 19 18 18 17 16 16 15 15 14 14 15 15 15 16 16 17
23 23 23 23 23 24 25 26 27 27 28 27 27 25 24 23 23 23 23 23 24 25 26 27 28 29 30 30 30 30 30 31 31 30 30 31 32 32 32 32 30 30 30 30 30 29 27 27 26 25 24 22 20 19 18 17 16 15 14 14 14 14 15 15 15 16 17 18 17
22 23 23 24 25 26 27 29 29 29 29 27 26 25 23 23 23 23 23 24 25 26 27 29 30 30 31 31 30 30 30 30 31 31 31 32 32 32 32 31 30 30 30 30 28 27 27 26 25 25 24 23 21 18 17 16 15 14 14 14 15 15 16 16 17 17 18 18 17
24 24 25 26 28 29 31 31 30 29 28 27 25 23 22 22 22 22 23 24 25 27 29 31 31 31 31 31 31 31 31 31 31 31 31 31 32 31 31 29 28 28 29 28 28 27 26 25 24 24 23 22 21 19 18 16 15 15 16 16 17 17 17 18 18 18 18 17 17
25 27 29 31 32 32 32 31 30 28 27 25 24 23 22 22 22 22 23 23 25 27 29 31 31 31 32 32 31 31 31 31 30 30 31 31 31 31 29 27 27 27 28 28 27 27 26 25 24 23 22 22 21 19 18 16 17 17 17 18 18 18 18 18 18 17 17 17 17
30 31 33 33 33 32 32 31 29 27 26 25 24 24 23 23 23 24 24 25 26 28 30 31 32 32 32 32 32 31 31 31 30 30 30 31 31 30 27 26 26 27 27 28 27 26 26 24 23 22 22 22 21 19 18 18 18 18 18 18 18 18 18 18 17 17 17 17 17
33 33 33 33 33 32 30 28 27 26 25 25 25 25 25 25 26 26 27 27 27 28 30 31 31 32 32 32 32 31 31 30 30 30 30 31 31 28 25 24 25 26 27 27 27 26 25 24 23 22 22 23 21 19 18 18 18 18 18 18 18 18 18 17 17 17 17 16 16
33 33 32 31 31 29 27 25 25 26 27 27 27 26 27 27 27 27 27 27 28 28 29 30 31 31 31 31 31 31 31 30 29 29 30 30 29 27 24 23 25 27 27 27 27 26 25 24 23 23 23 24 21 19 18 18 18 18 18 18 18 18 18 17 17 17 17 17 17
31 31 30 28 27 25 24 23 25 27 28 28 28 28 28 27 27 27 27 28 29 29 30 30 30 30 30 30 31 30 30 29 29 29 29 29 27 25 23 22 24 27 28 27 27 26 25 24 23 23 23 23 21 19 18 18 18 18 18 18 18 18 18 17 17 17 17 17 17
29 27 26 25 24 23 23 23 24 26 27 28 28 28 29 28 27 28 28 29 30 31 31 31 30 30 30 30 30 30 29 28 28 28 27 27 26 24 23 23 24 27 28 27 27 26 25 24 23 23 23 22 20 18 18 18 18 18 18 18 18 18 17 17 17 17 17 17 17
26 25 24 25 24 24 24 24 25 27 27 28 28 28 29 29 29 29 30 31 31 31 31 30 30 29 29 30 30 29 29 28 27 27 26 25 25 24 24 24 25 27 27 27 27 26 25 24 23 23 22 21 19 18 18 18 18 18 18 18 18 18 17 17 17 17 17 17 17
24 24 26 27 25 25 26 27 27 27 27 28 28 28 29 29 29 30 31 31 31 30 30 29 29 29 29 29 29 29 29 29 28 27 26 25 25 24 24 24 25 26 27 27 27 26 25 24 23 22 22 19 18 17 17 17 17 17 17 17 17 17 17 17 17 17 17 17 17
23 24 26 27 27 27 27 28 28 27 27 28 28 28 29 29 29 30 30 30 30 29 29 28 28 28 28 28 28 29 29 28 27 26 25 24 24 24 23 24 24 25 26 27 27 26 25 23 23 22 21 18 17 16 16 16 16 16 16 15 15 16 16 16 17 17 17 17 19
23 24 25 27 27 27 27 27 27 27 28 28 29 29 29 30 30 30 30 30 30 29 28 28 28 28 28 28 27 27 27 27 27 26 25 24 24 24 23 23 23 24 25 26 27 26 25 23 23 22 22 18 16 16 16 16 15 14 14 14 14 14 15 16 16 17 17 16 21
25 27 28 28 28 27 27 26 27 27 28 29 29 29 30 30 30 30 30 30 30 29 28 28 28 28 28 28 27 27 26 27 27 25 24 23 24 25 25 22 22 23 25 26 26 26 25 24 23 23 22 18 16 15 15 15 14 13 13 13 13 14 14 15 16 16 17 16 19
28 29 28 28 27 27 27 27 27 28 29 30 30 30 30 30 30 30 30 30 29 29 28 28 28 29 29 28 27 26 25 25 26 25 24 23 25 26 26 22 22 23 24 26 27 26 25 24 23 23 22 19 16 15 15 14 13 13 12 13 13 13 14 14 15 16 16 16 16